Jasper, AL

4:32 AM CDT on September 17, 2019 (GMT -0500)
Walker County-Bevill

Weather History for KJFX - August, 2019

Change the Weather History Date:

Sunday, August 18, 2019

  Actual Average Record
Temperature  
Mean Temperature 83 °F -  
Max Temperature 102 °F 89 °F 100 °F (1988)
Min Temperature 64 °F 66 °F 58 °F (1992)
Cooling Degree Days 18    
Growing Degree Days 33 (Base 50)    
Moisture  
Dew Point 69 °F    
Average Humidity 68    
Maximum Humidity 100    
Minimum Humidity 31    
Precipitation  
Precipitation 0.00 in - - ()
Sea Level Pressure  
Sea Level Pressure 29.98 in    
Wind  
Wind Speed - ()    
Max Wind Speed -    
Max Gust Speed -    
Visibility 9.7 miles    
Events      
Averages and records for this station are not official NWS values.
T = Trace of Precipitation, MM = Missing Value Source: Averaged Metar Reports

Daily Weather History Graph

Daily Weather History Graph

Search for Another Location

Airport or City:

Astronomy

Aug. 18, 2019 Rise Set
Actual Time 6:12 AM CDT 7:32 PM CDT
Civil Twilight 5:46 AM CDT 7:58 PM CDT
Nautical Twilight 5:15 AM CDT 8:30 PM CDT
Astronomical Twilight 4:42 AM CDT 9:02 PM CDT
Moon 9:34 PM CDT (8/18) 8:51 AM CDT (8/18)
Length of Visible Light 14h 12m
Length of Day
13h 19m
Waning Gibbous, 91% of the Moon is Illuminated
Aug 18
Waning Gibbous
Aug 23
Last Quarter
Aug 30
New
Sep 5
First Quarter
Sep 13
Full

Hourly Weather History & Observations

Time (CDT) Temp. Heat Index Dew Point Humidity Pressure Visibility Wind Dir Wind Speed Gust Speed Precip Events Conditions
12:15 AM 69.8 °F - 69.8 °F 100% 29.97 in 10.0 mi North - - N/A   Clear
12:35 AM 68.0 °F - 68.0 °F 100% 29.96 in 10.0 mi North - - N/A   Clear
12:55 AM 68.0 °F - 68.0 °F 100% 29.96 in 10.0 mi North - - N/A   Clear
1:15 AM 68.0 °F - 68.0 °F 100% 29.96 in 10.0 mi North - - N/A   Clear
1:35 AM 68.0 °F - 68.0 °F 100% 29.96 in 10.0 mi North - - N/A   Clear
1:55 AM 68.0 °F - 68.0 °F 100% 29.96 in 10.0 mi North - - N/A   Clear
2:15 AM 66.2 °F - 66.2 °F 100% 29.96 in 10.0 mi North - - N/A   Clear
2:35 AM 66.2 °F - 66.2 °F 100% 29.95 in 10.0 mi North - - N/A   Clear
2:55 AM 66.2 °F - 66.2 °F 100% 29.96 in 10.0 mi North - - N/A   Clear
3:15 AM 66.2 °F - 66.2 °F 100% 29.95 in 10.0 mi North - - N/A   Clear
3:35 AM 66.2 °F - 66.2 °F 100% 29.96 in 10.0 mi North - - N/A   Clear
3:55 AM 66.2 °F - 66.2 °F 100% 29.95 in 10.0 mi North - - N/A   Clear
4:15 AM 66.2 °F - 66.2 °F 100% 29.95 in 10.0 mi North - - N/A   Clear
4:35 AM 66.2 °F - 66.2 °F 100% 29.97 in 9.0 mi North - - N/A   Clear
4:55 AM 66.2 °F - 66.2 °F 100% 29.97 in 10.0 mi North - - N/A   Clear
5:15 AM 64.4 °F - 64.4 °F 100% 29.97 in 10.0 mi North - - N/A   Clear
5:35 AM 64.4 °F - 64.4 °F 100% 29.98 in 9.0 mi North - - N/A   Clear
5:55 AM 64.4 °F - 64.4 °F 100% 29.98 in 10.0 mi North - - N/A   Clear
6:15 AM 64.4 °F - 64.4 °F 100% 29.99 in 9.0 mi North - - N/A   Clear
6:55 AM 66.2 °F - 66.2 °F 100% 30.00 in 10.0 mi North - - N/A   Clear
7:15 AM 69.8 °F - 69.8 °F 100% 30.00 in 10.0 mi North - - N/A   Clear
7:35 AM 71.6 °F - 71.6 °F 100% 30.01 in 10.0 mi North - - N/A   Clear
7:55 AM 77.0 °F - 68.0 °F 74% 30.01 in 10.0 mi North - - N/A   Clear
8:15 AM 78.8 °F - 69.8 °F 74% 30.01 in 10.0 mi North - - N/A   Clear
8:35 AM 82.4 °F 85.4 °F 68.0 °F 62% 30.01 in 10.0 mi North - - N/A   Clear
8:55 AM 84.2 °F 88.4 °F 69.8 °F 62% 30.02 in 10.0 mi North - - N/A   Clear
9:15 AM 86.0 °F 90.4 °F 69.8 °F 58% 30.02 in 10.0 mi North - - N/A   Clear
9:35 AM 87.8 °F 92.6 °F 69.8 °F 55% 30.02 in 10.0 mi North - - N/A   Clear
9:55 AM 91.4 °F 96.8 °F 69.8 °F 49% 30.02 in 10.0 mi North - - N/A   Clear
10:15 AM 93.2 °F 98.8 °F 69.8 °F 46% 30.02 in 10.0 mi North - - N/A   Clear
10:35 AM 95.0 °F 101.3 °F 69.8 °F 44% 30.02 in 10.0 mi North - - N/A   Clear
10:55 AM 95.0 °F 99.5 °F 68.0 °F 41% 30.03 in 10.0 mi North - - N/A   Clear
11:15 AM 95.0 °F 99.5 °F 68.0 °F 41% 30.03 in 10.0 mi North - - N/A   Clear
11:35 AM 96.8 °F 101.8 °F 68.0 °F 39% 30.02 in 10.0 mi North - - N/A   Clear
11:55 AM 98.6 °F 102.8 °F 66.2 °F 35% 30.02 in 10.0 mi North - - N/A   Clear
12:15 PM 98.6 °F 101.0 °F 64.4 °F 32% 30.02 in 10.0 mi North - - N/A   Clear
12:35 PM 100.4 °F 104.9 °F 66.2 °F 33% 30.02 in 10.0 mi North - - N/A   Clear
12:55 PM 98.6 °F 101.0 °F 64.4 °F 32% 30.01 in 10.0 mi North - - N/A   Clear
1:15 PM 100.4 °F 104.9 °F 66.2 °F 33% 30.00 in 10.0 mi North - - N/A   Clear
1:35 PM 100.4 °F 104.9 °F 66.2 °F 33% 29.99 in 10.0 mi North - - N/A   Scattered Clouds
1:55 PM 98.6 °F 101.0 °F 64.4 °F 32% 29.98 in 10.0 mi North - - N/A   Partly Cloudy
2:15 PM 100.4 °F 104.9 °F 66.2 °F 33% 29.97 in 10.0 mi North - - N/A   Clear
2:35 PM 96.8 °F 100.7 °F 66.2 °F 37% 29.96 in 10.0 mi North - - N/A   Clear
2:55 PM 102.2 °F 106.9 °F 66.2 °F 31% 29.95 in 10.0 mi North - - N/A   Clear
3:15 PM 100.4 °F 104.9 °F 66.2 °F 33% 29.94 in 10.0 mi North - - N/A   Clear
3:35 PM 100.4 °F 103.6 °F 64.4 °F 31% 29.94 in 10.0 mi North - - N/A   Clear
3:55 PM 100.4 °F 103.6 °F 64.4 °F 31% 29.93 in 10.0 mi North - - N/A   Clear
4:15 PM 98.6 °F 104.1 °F 68.0 °F 37% 29.94 in 10.0 mi North - - N/A   Clear
4:35 PM 100.4 °F 106.3 °F 68.0 °F 35% 29.95 in 10.0 mi North - - N/A   Clear
4:55 PM 98.6 °F 101.0 °F 64.4 °F 32% 29.94 in 10.0 mi North - - N/A   Clear
5:15 PM 100.4 °F 103.6 °F 64.4 °F 31% 29.94 in 10.0 mi North - - N/A   Clear
5:35 PM 100.4 °F 104.9 °F 66.2 °F 33% 29.93 in 10.0 mi North - - N/A   Clear
5:55 PM 98.6 °F 102.8 °F 66.2 °F 35% 29.93 in 10.0 mi North - - N/A   Clear
6:15 PM 95.0 °F 99.5 °F 68.0 °F 41% 29.94 in 10.0 mi North - - N/A   Partly Cloudy
6:35 PM 93.2 °F 97.7 °F 68.0 °F 44% 29.95 in 10.0 mi North - - N/A   Partly Cloudy
6:55 PM 89.6 °F 99.8 °F 75.2 °F 62% 29.95 in 10.0 mi North - - N/A   Clear
7:15 PM 86.0 °F 93.4 °F 73.4 °F 66% 29.95 in 10.0 mi North - - N/A   Clear
7:35 PM 86.0 °F 93.4 °F 73.4 °F 66% 29.96 in 9.0 mi North - - N/A   Clear
7:55 PM 82.4 °F 88.2 °F 73.4 °F 74% 29.96 in 10.0 mi North - - N/A   Clear
8:15 PM 80.6 °F 86.2 °F 75.2 °F 84% 29.97 in 10.0 mi North - - N/A   Clear
8:35 PM 80.6 °F 85.4 °F 73.4 °F 79% 29.96 in 10.0 mi North - - N/A   Clear
8:55 PM 80.6 °F 86.2 °F 75.2 °F 84% 29.97 in 7.0 mi North - - N/A   Clear
9:15 PM 78.8 °F - 75.2 °F 89% 29.97 in 10.0 mi North - - N/A   Clear
9:35 PM 78.8 °F - 73.4 °F 83% 29.97 in 8.0 mi North - - N/A   Clear
9:55 PM 78.8 °F - 75.2 °F 89% 29.97 in 8.0 mi North - - N/A   Clear
10:15 PM 77.0 °F - 75.2 °F 94% 29.97 in 5.0 mi North - - N/A   Clear
10:35 PM 77.0 °F - 75.2 °F 94% 29.98 in 7.0 mi North - - N/A   Clear
11:15 PM 77.0 °F - 75.2 °F 94% 29.99 in 9.0 mi North - - N/A   Partly Cloudy
11:35 PM 77.0 °F - 75.2 °F 94% 30.00 in 10.0 mi North - - N/A   Partly Cloudy
11:55 PM 78.8 °F - 73.4 °F 83% 30.00 in 10.0 mi North - - N/A   Partly Cloudy